QPF
0.01 0.01 0.00 0.00 0.00 0.00 0.01 0.01 0.02 0.01 0.02 0.02 0.01 0.01 0.02 0.02 0.02 0.02 0.02 0.02 0.02 0.02 0.03 0.05 0.07 0.09 0.09 0.11 0.14 0.18 0.19 0.13 0.13 0.13 0.09 0.06 0.09 0.09 0.07 0.08 0.10 0.07 0.06
0.00 0.00 0.00 0.00 0.00 0.00 0.01 0.01 0.02 0.02 0.02 0.02 0.02 0.02 0.03 0.04 0.03 0.02 0.02 0.02 0.03 0.03 0.03 0.05 0.06 0.07 0.07 0.08 0.11 0.15 0.20 0.16 0.16 0.15 0.13 0.12 0.11 0.10 0.09 0.11 0.13 0.10 0.07
0.01 0.02 0.01 0.00 0.00 0.00 0.00 0.01 0.03 0.03 0.03 0.04 0.04 0.03 0.03 0.04 0.03 0.03 0.03 0.03 0.03 0.04 0.04 0.05 0.05 0.05 0.06 0.06 0.11 0.18 0.24 0.23 0.22 0.21 0.19 0.15 0.12 0.11 0.11 0.11 0.09 0.08 0.07
0.01 0.03 0.02 0.00 0.00 0.01 0.01 0.02 0.03 0.03 0.03 0.05 0.06 0.04 0.05 0.05 0.04 0.04 0.06 0.05 0.04 0.04 0.05 0.05 0.05 0.05 0.05 0.05 0.07 0.13 0.18 0.24 0.26 0.23 0.21 0.20 0.15 0.13 0.10 0.10 0.08 0.08 0.07
0.00 0.01 0.01 0.00 0.00 0.01 0.01 0.02 0.03 0.03 0.04 0.06 0.07 0.06 0.06 0.06 0.06 0.05 0.05 0.05 0.04 0.05 0.06 0.05 0.05 0.05 0.06 0.06 0.06 0.09 0.13 0.17 0.18 0.18 0.26 0.21 0.17 0.17 0.12 0.10 0.08 0.07 0.07
0.00 0.01 0.01 0.00 0.01 0.01 0.01 0.02 0.03 0.04 0.05 0.05 0.08 0.07 0.06 0.08 0.08 0.05 0.04 0.04 0.03 0.04 0.04 0.04 0.05 0.06 0.06 0.06 0.06 0.08 0.11 0.12 0.13 0.10 0.19 0.17 0.17 0.18 0.13 0.10 0.09 0.07 0.05
0.02 0.03 0.01 0.00 0.01 0.01 0.02 0.02 0.04 0.04 0.05 0.05 0.09 0.08 0.07 0.08 0.07 0.06 0.05 0.03 0.03 0.04 0.04 0.04 0.04 0.05 0.06 0.07 0.07 0.08 0.07 0.10 0.12 0.09 0.14 0.12 0.17 0.19 0.13 0.10 0.13 0.10 0.05
0.03 0.05 0.02 0.01 0.01 0.03 0.03 0.02 0.02 0.03 0.03 0.05 0.07 0.06 0.06 0.06 0.06 0.05 0.05 0.05 0.05 0.05 0.05 0.04 0.04 0.04 0.06 0.07 0.07 0.07 0.07 0.09 0.12 0.09 0.10 0.09 0.13 0.14 0.11 0.10 0.10 0.10 0.08
0.03 0.04 0.02 0.01 0.04 0.08 0.05 0.03 0.02 0.03 0.03 0.04 0.06 0.05 0.05 0.05 0.06 0.06 0.05 0.06 0.06 0.06 0.06 0.05 0.05 0.05 0.05 0.05 0.06 0.06 0.06 0.06 0.08 0.09 0.07 0.08 0.09 0.10 0.10 0.10 0.07 0.07 0.07
0.02 0.01 0.01 0.01 0.04 0.09 0.06 0.03 0.03 0.05 0.04 0.04 0.05 0.05 0.04 0.05 0.06 0.07 0.06 0.06 0.06 0.05 0.05 0.05 0.05 0.05 0.04 0.04 0.05 0.05 0.06 0.07 0.04 0.04 0.05 0.05 0.05 0.08 0.09 0.11 0.06 0.05 0.06
0.03 0.01 0.00 0.01 0.02 0.04 0.05 0.04 0.03 0.06 0.06 0.04 0.05 0.05 0.06 0.07 0.07 0.06 0.05 0.06 0.06 0.05 0.04 0.04 0.03 0.05 0.03 0.03 0.04 0.05 0.06 0.06 0.05 0.05 0.04 0.03 0.04 0.06 0.07 0.07 0.07 0.06 0.05
0.03 0.03 0.02 0.02 0.04 0.05 0.06 0.06 0.03 0.03 0.03 0.03 0.04 0.05 0.05 0.06 0.08 0.07 0.06 0.06 0.06 0.06 0.05 0.04 0.04 0.04 0.03 0.03 0.04 0.06 0.08 0.11 0.08 0.06 0.03 0.03 0.04 0.05 0.06 0.06 0.07 0.08 0.06
0.04 0.05 0.05 0.04 0.03 0.05 0.07 0.05 0.03 0.02 0.03 0.03 0.04 0.04 0.04 0.05 0.06 0.06 0.06 0.06 0.06 0.06 0.05 0.06 0.06 0.05 0.02 0.04 0.04 0.05 0.08 0.14 0.10 0.05 0.03 0.03 0.03 0.03 0.04 0.04 0.05 0.06 0.08
0.04 0.05 0.05 0.02 0.03 0.03 0.03 0.03 0.03 0.02 0.03 0.04 0.05 0.04 0.04 0.06 0.06 0.06 0.04 0.04 0.04 0.05 0.06 0.05 0.05 0.04 0.04 0.04 0.02 0.02 0.05 0.12 0.10 0.07 0.05 0.02 0.01 0.01 0.02 0.03 0.04 0.05 0.07
0.02 0.03 0.02 0.01 0.03 0.05 0.05 0.04 0.03 0.03 0.04 0.05 0.06 0.05 0.04 0.05 0.04 0.04 0.03 0.04 0.04 0.05 0.06 0.05 0.05 0.05 0.06 0.05 0.04 0.02 0.04 0.11 0.09 0.08 0.06 0.03 0.01 0.01 0.02 0.02 0.03 0.03 0.05
0.02 0.02 0.03 0.02 0.03 0.05 0.06 0.04 0.04 0.04 0.04 0.05 0.05 0.04 0.03 0.03 0.03 0.03 0.04 0.06 0.05 0.07 0.09 0.07 0.07 0.05 0.06 0.08 0.07 0.05 0.05 0.08 0.10 0.12 0.08 0.04 0.02 0.01 0.01 0.02 0.02 0.03 0.03
0.02 0.02 0.01 0.02 0.03 0.04 0.05 0.04 0.04 0.04 0.03 0.04 0.06 0.04 0.03 0.04 0.05 0.04 0.05 0.06 0.06 0.06 0.07 0.07 0.10 0.08 0.07 0.08 0.09 0.10 0.06 0.08 0.09 0.13 0.16 0.07 0.02 0.02 0.02 0.02 0.02 0.02 0.02
0.01 0.01 0.01 0.01 0.02 0.04 0.06 0.06 0.05 0.05 0.03 0.03 0.06 0.05 0.03 0.03 0.04 0.04 0.05 0.06 0.07 0.07 0.08 0.08 0.09 0.09 0.08 0.08 0.09 0.11 0.08 0.07 0.07 0.09 0.16 0.09 0.04 0.03 0.02 0.03 0.02 0.02 0.02
0.02 0.02 0.01 0.01 0.02 0.04 0.05 0.05 0.05 0.05 0.04 0.04 0.04 0.06 0.05 0.03 0.03 0.04 0.06 0.08 0.08 0.08 0.09 0.07 0.08 0.09 0.08 0.08 0.08 0.08 0.08 0.06 0.06 0.06 0.10 0.08 0.05 0.04 0.02 0.02 0.02 0.02 0.01
0.04 0.03 0.02 0.03 0.02 0.03 0.05 0.05 0.06 0.06 0.06 0.05 0.04 0.07 0.07 0.05 0.04 0.05 0.06 0.06 0.06 0.06 0.07 0.07 0.08 0.08 0.07 0.06 0.07 0.08 0.06 0.05 0.05 0.05 0.05 0.08 0.06 0.04 0.03 0.02 0.01 0.01 0.01
0.03 0.03 0.04 0.03 0.04 0.04 0.04 0.04 0.05 0.06 0.06 0.05 0.03 0.04 0.03 0.04 0.05 0.04 0.05 0.05 0.05 0.05 0.04 0.04 0.05 0.06 0.06 0.07 0.08 0.10 0.09 0.08 0.06 0.05 0.05 0.07 0.05 0.05 0.07 0.05 0.03 0.02 0.01
0.03 0.03 0.04 0.03 0.04 0.04 0.04 0.03 0.03 0.04 0.04 0.04 0.04 0.04 0.03 0.03 0.05 0.05 0.04 0.03 0.03 0.04 0.04 0.03 0.04 0.05 0.05 0.07 0.08 0.09 0.09 0.11 0.09 0.05 0.05 0.06 0.05 0.05 0.07 0.06 0.04 0.04 0.02
0.02 0.02 0.02 0.03 0.04 0.05 0.06 0.05 0.05 0.05 0.04 0.04 0.04 0.04 0.04 0.04 0.05 0.07 0.06 0.05 0.04 0.05 0.04 0.04 0.04 0.06 0.05 0.06 0.07 0.08 0.08 0.06 0.06 0.06 0.05 0.05 0.04 0.04 0.03 0.04 0.05 0.04 0.04
0.01 0.01 0.02 0.03 0.03 0.04 0.05 0.05 0.05 0.05 0.04 0.04 0.04 0.05 0.06 0.07 0.07 0.06 0.05 0.06 0.06 0.05 0.05 0.04 0.04 0.05 0.06 0.06 0.07 0.07 0.06 0.06 0.07 0.08 0.07 0.06 0.06 0.05 0.04 0.03 0.04 0.04 0.03
0.01 0.01 0.02 0.03 0.03 0.03 0.04 0.04 0.05 0.07 0.06 0.07 0.06 0.07 0.07 0.08 0.07 0.06 0.04 0.05 0.06 0.05 0.05 0.05 0.06 0.05 0.06 0.06 0.06 0.07 0.08 0.08 0.08 0.09 0.08 0.08 0.08 0.06 0.05 0.05 0.06 0.06 0.03
0.02 0.02 0.03 0.03 0.03 0.03 0.03 0.04 0.05 0.06 0.06 0.07 0.08 0.08 0.08 0.07 0.08 0.07 0.07 0.07 0.07 0.07 0.07 0.06 0.06 0.05 0.06 0.06 0.07 0.06 0.07 0.07 0.07 0.08 0.09 0.09 0.08 0.06 0.05 0.05 0.05 0.06 0.04
MSLP
1008.28 1008.00 1008.09 1008.52 1009.19 1009.93 1010.60 1011.12 1011.45 1011.63 1011.72 1011.83 1012.03 1012.34 1012.76 1013.22 1013.65 1014.00 1014.22 1014.33 1014.37 1014.39 1014.45 1014.57 1014.77 1015.01 1015.24 1015.42 1015.53 1015.56 1015.53 1015.50 1015.50 1015.58 1015.74 1015.97 1016.25 1016.54 1016.81 1017.03 1017.22 1017.39 1017.57
1008.25 1008.19 1008.46 1009.02 1009.73 1010.45 1011.05 1011.47 1011.69 1011.77 1011.82 1011.92 1012.16 1012.54 1013.03 1013.56 1014.04 1014.41 1014.63 1014.71 1014.72 1014.71 1014.75 1014.86 1015.06 1015.30 1015.53 1015.70 1015.78 1015.78 1015.71 1015.64 1015.61 1015.67 1015.85 1016.11 1016.43 1016.77 1017.09 1017.35 1017.56 1017.74 1017.91
1008.10 1008.28 1008.74 1009.43 1010.21 1010.93 1011.48 1011.81 1011.95 1011.96 1011.96 1012.05 1012.30 1012.72 1013.25 1013.81 1014.32 1014.69 1014.89 1014.96 1014.95 1014.93 1014.96 1015.09 1015.30 1015.54 1015.77 1015.93 1015.98 1015.94 1015.83 1015.72 1015.68 1015.74 1015.94 1016.24 1016.61 1017.00 1017.37 1017.67 1017.92 1018.11 1018.28
1007.87 1008.26 1008.90 1009.72 1010.57 1011.31 1011.85 1012.14 1012.22 1012.18 1012.16 1012.24 1012.49 1012.91 1013.45 1014.02 1014.51 1014.87 1015.06 1015.12 1015.10 1015.09 1015.14 1015.29 1015.51 1015.77 1015.99 1016.13 1016.15 1016.07 1015.93 1015.80 1015.75 1015.82 1016.04 1016.38 1016.80 1017.25 1017.66 1018.01 1018.28 1018.49 1018.66
1007.62 1008.17 1008.96 1009.89 1010.80 1011.58 1012.12 1012.40 1012.47 1012.42 1012.39 1012.47 1012.72 1013.14 1013.66 1014.21 1014.68 1015.01 1015.19 1015.24 1015.23 1015.24 1015.32 1015.49 1015.74 1016.00 1016.22 1016.34 1016.34 1016.23 1016.06 1015.92 1015.86 1015.95 1016.19 1016.57 1017.02 1017.50 1017.95 1018.33 1018.62 1018.85 1019.03
1007.42 1008.06 1008.94 1009.94 1010.91 1011.71 1012.28 1012.58 1012.67 1012.65 1012.64 1012.74 1013.00 1013.41 1013.91 1014.42 1014.86 1015.16 1015.33 1015.38 1015.39 1015.43 1015.54 1015.73 1015.99 1016.26 1016.47 1016.57 1016.54 1016.42 1016.24 1016.09 1016.04 1016.14 1016.40 1016.80 1017.27 1017.77 1018.22 1018.61 1018.91 1019.15 1019.34
1007.32 1008.00 1008.90 1009.91 1010.90 1011.72 1012.31 1012.66 1012.80 1012.84 1012.88 1013.02 1013.30 1013.71 1014.20 1014.68 1015.08 1015.36 1015.51 1015.57 1015.60 1015.66 1015.79 1016.01 1016.27 1016.54 1016.73 1016.82 1016.78 1016.65 1016.47 1016.33 1016.29 1016.40 1016.66 1017.06 1017.53 1018.01 1018.45 1018.82 1019.11 1019.34 1019.53
1007.36 1008.00 1008.86 1009.84 1010.80 1011.62 1012.23 1012.62 1012.84 1012.96 1013.08 1013.28 1013.61 1014.03 1014.51 1014.97 1015.35 1015.61 1015.75 1015.81 1015.85 1015.92 1016.06 1016.28 1016.54 1016.80 1016.98 1017.06 1017.02 1016.89 1016.73 1016.61 1016.58 1016.70 1016.96 1017.33 1017.77 1018.21 1018.61 1018.94 1019.20 1019.42 1019.60
1007.52 1008.08 1008.86 1009.75 1010.64 1011.43 1012.05 1012.48 1012.76 1012.97 1013.19 1013.48 1013.86 1014.32 1014.81 1015.26 1015.62 1015.87 1016.00 1016.06 1016.10 1016.17 1016.31 1016.52 1016.78 1017.01 1017.19 1017.27 1017.24 1017.14 1017.00 1016.90 1016.89 1017.01 1017.25 1017.58 1017.96 1018.34 1018.68 1018.96 1019.19 1019.38 1019.56
1007.77 1008.23 1008.89 1009.67 1010.46 1011.18 1011.78 1012.23 1012.58 1012.88 1013.19 1013.57 1014.02 1014.53 1015.04 1015.50 1015.86 1016.10 1016.23 1016.28 1016.32 1016.38 1016.51 1016.70 1016.93 1017.16 1017.33 1017.42 1017.41 1017.34 1017.25 1017.18 1017.19 1017.30 1017.51 1017.79 1018.11 1018.42 1018.69 1018.92 1019.10 1019.26 1019.44
1008.06 1008.42 1008.96 1009.61 1010.28 1010.92 1011.47 1011.93 1012.32 1012.69 1013.08 1013.54 1014.06 1014.62 1015.16 1015.64 1016.02 1016.26 1016.39 1016.44 1016.47 1016.52 1016.63 1016.80 1017.01 1017.22 1017.39 1017.50 1017.54 1017.51 1017.46 1017.43 1017.45 1017.55 1017.72 1017.95 1018.21 1018.45 1018.66 1018.84 1018.99 1019.14 1019.31
1008.36 1008.64 1009.07 1009.58 1010.14 1010.67 1011.16 1011.60 1012.01 1012.42 1012.88 1013.40 1013.98 1014.58 1015.16 1015.67 1016.06 1016.32 1016.46 1016.52 1016.54 1016.59 1016.68 1016.83 1017.02 1017.23 1017.41 1017.54 1017.62 1017.64 1017.63 1017.63 1017.66 1017.74 1017.88 1018.06 1018.26 1018.45 1018.62 1018.77 1018.90 1019.06 1019.24
1008.64 1008.88 1009.21 1009.62 1010.07 1010.50 1010.92 1011.32 1011.72 1012.15 1012.63 1013.19 1013.80 1014.43 1015.04 1015.57 1015.98 1016.27 1016.43 1016.51 1016.55 1016.59 1016.68 1016.82 1017.00 1017.21 1017.41 1017.57 1017.68 1017.74 1017.77 1017.79 1017.82 1017.88 1017.98 1018.11 1018.26 1018.42 1018.57 1018.72 1018.87 1019.04 1019.24
1008.89 1009.12 1009.40 1009.74 1010.09 1010.45 1010.79 1011.14 1011.51 1011.92 1012.40 1012.95 1013.57 1014.21 1014.82 1015.37 1015.81 1016.12 1016.32 1016.44 1016.50 1016.57 1016.66 1016.81 1017.00 1017.21 1017.42 1017.61 1017.75 1017.84 1017.89 1017.92 1017.94 1017.97 1018.03 1018.12 1018.23 1018.37 1018.53 1018.70 1018.89 1019.10 1019.33
1009.11 1009.36 1009.63 1009.93 1010.23 1010.52 1010.81 1011.10 1011.42 1011.79 1012.24 1012.76 1013.34 1013.95 1014.55 1015.10 1015.56 1015.91 1016.15 1016.31 1016.43 1016.53 1016.66 1016.82 1017.02 1017.24 1017.47 1017.67 1017.83 1017.94 1017.99 1018.01 1018.01 1018.01 1018.02 1018.07 1018.16 1018.30 1018.47 1018.68 1018.92 1019.19 1019.46
1009.29 1009.59 1009.89 1010.19 1010.47 1010.73 1010.98 1011.23 1011.50 1011.81 1012.19 1012.64 1013.16 1013.71 1014.27 1014.80 1015.26 1015.64 1015.94 1016.16 1016.34 1016.49 1016.66 1016.85 1017.07 1017.31 1017.54 1017.76 1017.92 1018.03 1018.08 1018.08 1018.04 1018.00 1017.97 1017.99 1018.05 1018.19 1018.38 1018.63 1018.93 1019.25 1019.57
1009.42 1009.79 1010.14 1010.47 1010.77 1011.03 1011.27 1011.49 1011.72 1011.97 1012.27 1012.63 1013.06 1013.52 1014.01 1014.50 1014.96 1015.36 1015.70 1015.98 1016.22 1016.44 1016.66 1016.89 1017.13 1017.38 1017.62 1017.84 1018.00 1018.11 1018.14 1018.12 1018.05 1017.97 1017.90 1017.87 1017.91 1018.04 1018.25 1018.53 1018.87 1019.24 1019.60
1009.49 1009.94 1010.35 1010.73 1011.07 1011.36 1011.61 1011.83 1012.03 1012.23 1012.45 1012.72 1013.03 1013.40 1013.80 1014.23 1014.65 1015.06 1015.43 1015.77 1016.07 1016.36 1016.63 1016.90 1017.16 1017.43 1017.68 1017.89 1018.06 1018.15 1018.18 1018.14 1018.04 1017.93 1017.82 1017.76 1017.77 1017.87 1018.07 1018.36 1018.72 1019.12 1019.52
1009.50 1010.01 1010.49 1010.93 1011.32 1011.66 1011.95 1012.18 1012.37 1012.54 1012.69 1012.87 1013.07 1013.33 1013.63 1013.98 1014.36 1014.75 1015.15 1015.53 1015.89 1016.22 1016.54 1016.85 1017.14 1017.42 1017.67 1017.89 1018.06 1018.16 1018.18 1018.14 1018.04 1017.90 1017.77 1017.67 1017.64 1017.70 1017.87 1018.14 1018.49 1018.89 1019.30
1009.44 1010.01 1010.54 1011.04 1011.48 1011.88 1012.21 1012.48 1012.68 1012.83 1012.94 1013.04 1013.15 1013.30 1013.50 1013.76 1014.08 1014.45 1014.85 1015.25 1015.65 1016.03 1016.39 1016.72 1017.04 1017.33 1017.59 1017.82 1018.00 1018.12 1018.16 1018.14 1018.05 1017.92 1017.77 1017.65 1017.57 1017.58 1017.70 1017.91 1018.21 1018.58 1018.98
1009.34 1009.95 1010.51 1011.05 1011.54 1011.98 1012.36 1012.67 1012.90 1013.06 1013.14 1013.19 1013.22 1013.28 1013.39 1013.57 1013.83 1014.15 1014.53 1014.94 1015.36 1015.77 1016.16 1016.52 1016.85 1017.16 1017.44 1017.68 1017.88 1018.03 1018.12 1018.14 1018.09 1017.98 1017.84 1017.69 1017.58 1017.54 1017.58 1017.71 1017.94 1018.26 1018.62
1009.24 1009.86 1010.44 1010.99 1011.50 1011.98 1012.40 1012.75 1013.02 1013.19 1013.27 1013.29 1013.28 1013.27 1013.30 1013.41 1013.59 1013.87 1014.22 1014.62 1015.05 1015.47 1015.87 1016.24 1016.59 1016.91 1017.20 1017.47 1017.71 1017.91 1018.05 1018.13 1018.14 1018.07 1017.95 1017.81 1017.67 1017.57 1017.53 1017.58 1017.73 1017.97 1018.28
1009.18 1009.80 1010.38 1010.91 1011.42 1011.91 1012.35 1012.73 1013.03 1013.23 1013.33 1013.34 1013.30 1013.24 1013.22 1013.26 1013.39 1013.61 1013.92 1014.30 1014.71 1015.12 1015.53 1015.91 1016.27 1016.60 1016.91 1017.21 1017.49 1017.74 1017.94 1018.09 1018.17 1018.16 1018.09 1017.96 1017.81 1017.67 1017.57 1017.54 1017.59 1017.75 1018.00
1009.21 1009.82 1010.37 1010.88 1011.36 1011.82 1012.26 1012.65 1012.97 1013.19 1013.30 1013.33 1013.28 1013.20 1013.14 1013.13 1013.20 1013.37 1013.64 1013.97 1014.35 1014.76 1015.15 1015.53 1015.89 1016.23 1016.56 1016.88 1017.20 1017.50 1017.77 1017.99 1018.14 1018.21 1018.19 1018.10 1017.96 1017.79 1017.65 1017.56 1017.54 1017.63 1017.82
1009.34 1009.94 1010.45 1010.91 1011.34 1011.75 1012.16 1012.54 1012.86 1013.09 1013.23 1013.27 1013.22 1013.14 1013.05 1013.00 1013.03 1013.14 1013.35 1013.64 1013.98 1014.36 1014.74 1015.11 1015.47 1015.81 1016.16 1016.50 1016.85 1017.19 1017.52 1017.80 1018.02 1018.15 1018.19 1018.15 1018.04 1017.90 1017.74 1017.62 1017.57 1017.61 1017.75
1009.55 1010.14 1010.62 1011.01 1011.38 1011.73 1012.08 1012.42 1012.73 1012.96 1013.11 1013.16 1013.13 1013.04 1012.94 1012.86 1012.84 1012.90 1013.05 1013.29 1013.59 1013.92 1014.28 1014.63 1014.99 1015.34 1015.69 1016.05 1016.42 1016.80 1017.16 1017.49 1017.76 1017.96 1018.07 1018.09 1018.04 1017.93 1017.80 1017.69 1017.63 1017.66 1017.79
Thickness
5818 5812 5806 5801 5798 5794 5791 5789 5786 5783 5781 5779 5777 5774 5772 5770 5769 5767 5766 5764 5763 5762 5761 5759 5758 5758 5757 5757 5756 5756 5754 5753 5752 5752 5751 5750 5749 5748 5748 5747 5747 5746 5745
5820 5811 5804 5800 5796 5792 5789 5787 5784 5781 5779 5776 5774 5772 5770 5768 5766 5765 5764 5762 5761 5760 5758 5757 5756 5755 5755 5754 5754 5753 5752 5751 5751 5750 5750 5749 5748 5747 5746 5745 5744 5743 5742
5817 5808 5802 5797 5793 5790 5787 5784 5781 5779 5776 5773 5771 5769 5767 5765 5763 5762 5761 5759 5758 5757 5756 5755 5754 5753 5752 5751 5751 5750 5750 5749 5749 5748 5748 5747 5746 5745 5744 5742 5741 5740 5739
5817 5808 5801 5795 5791 5788 5784 5781 5779 5776 5773 5770 5768 5766 5764 5762 5761 5760 5758 5756 5755 5754 5753 5752 5752 5750 5749 5748 5748 5748 5747 5747 5746 5746 5746 5746 5746 5743 5741 5740 5739 5738 5737
5817 5809 5799 5794 5789 5785 5782 5779 5776 5774 5771 5768 5766 5764 5762 5760 5758 5757 5756 5754 5753 5751 5750 5750 5749 5748 5747 5746 5746 5745 5745 5744 5744 5744 5744 5743 5743 5741 5739 5738 5737 5736 5736
5815 5806 5797 5791 5787 5783 5780 5777 5774 5771 5768 5766 5763 5761 5759 5757 5755 5754 5753 5752 5750 5749 5748 5747 5747 5746 5745 5744 5743 5743 5742 5742 5742 5743 5744 5742 5741 5738 5737 5736 5735 5735 5734
5811 5803 5794 5789 5785 5781 5777 5774 5771 5769 5766 5763 5761 5759 5757 5754 5752 5751 5750 5749 5748 5746 5746 5745 5744 5743 5743 5742 5741 5741 5741 5741 5741 5743 5742 5741 5739 5738 5736 5735 5734 5733 5732
5810 5801 5791 5786 5782 5778 5775 5772 5769 5766 5763 5761 5758 5756 5754 5752 5750 5748 5747 5746 5745 5744 5743 5742 5742 5741 5740 5740 5739 5739 5739 5739 5741 5743 5742 5740 5737 5736 5735 5733 5732 5731 5731
5809 5799 5791 5785 5781 5777 5773 5769 5766 5764 5761 5759 5756 5754 5752 5750 5748 5746 5745 5743 5742 5742 5741 5740 5739 5739 5738 5738 5738 5738 5738 5739 5739 5742 5741 5739 5736 5735 5733 5732 5731 5730 5729
5806 5798 5792 5786 5781 5776 5771 5767 5764 5761 5759 5756 5754 5752 5750 5748 5747 5745 5743 5741 5740 5739 5739 5738 5737 5737 5736 5736 5736 5737 5737 5738 5739 5741 5740 5738 5736 5734 5732 5731 5729 5729 5728
5801 5796 5792 5786 5781 5776 5771 5766 5762 5759 5756 5754 5752 5749 5747 5747 5746 5744 5742 5740 5738 5737 5737 5736 5735 5735 5735 5735 5735 5736 5736 5737 5739 5740 5739 5738 5736 5734 5732 5730 5728 5728 5727
5795 5793 5791 5786 5781 5776 5772 5765 5761 5758 5755 5753 5751 5748 5746 5746 5745 5744 5741 5738 5737 5735 5735 5734 5734 5733 5733 5735 5735 5735 5735 5736 5737 5737 5737 5737 5735 5733 5731 5729 5728 5727 5726
5795 5792 5789 5784 5779 5775 5770 5765 5761 5758 5755 5752 5750 5748 5746 5745 5744 5742 5739 5736 5735 5734 5733 5733 5732 5732 5734 5735 5736 5736 5736 5735 5735 5735 5735 5736 5734 5733 5730 5728 5726 5725 5725
5792 5789 5787 5782 5777 5772 5768 5764 5761 5757 5754 5752 5749 5746 5744 5743 5742 5740 5738 5736 5735 5734 5733 5732 5732 5733 5734 5735 5735 5736 5736 5736 5735 5734 5734 5735 5733 5732 5729 5727 5725 5724 5724
5788 5785 5782 5779 5773 5769 5765 5762 5760 5756 5754 5751 5747 5744 5742 5741 5739 5738 5736 5735 5735 5733 5732 5731 5731 5732 5732 5733 5733 5734 5735 5735 5735 5734 5732 5732 5731 5730 5728 5726 5724 5723 5722
5784 5781 5778 5775 5770 5766 5761 5758 5756 5754 5752 5750 5747 5743 5741 5738 5736 5734 5733 5732 5732 5731 5729 5728 5728 5729 5729 5729 5730 5731 5731 5731 5732 5731 5729 5729 5729 5727 5726 5724 5723 5722 5721
5781 5778 5774 5771 5767 5762 5758 5755 5754 5752 5749 5747 5744 5741 5738 5736 5733 5732 5730 5729 5729 5728 5727 5726 5725 5725 5725 5726 5725 5726 5728 5728 5728 5728 5726 5726 5726 5724 5723 5722 5721 5720 5718
5778 5774 5770 5769 5763 5758 5755 5753 5751 5749 5747 5745 5742 5739 5736 5733 5732 5730 5728 5727 5727 5725 5724 5723 5722 5720 5720 5720 5721 5723 5725 5725 5725 5726 5725 5724 5723 5722 5720 5719 5718 5717 5716
5776 5771 5766 5764 5759 5756 5752 5750 5748 5746 5744 5742 5739 5736 5733 5730 5729 5727 5726 5725 5723 5722 5720 5719 5718 5717 5715 5716 5717 5720 5721 5721 5722 5723 5723 5722 5721 5720 5719 5717 5715 5714 5713
5775 5769 5764 5761 5757 5753 5750 5746 5744 5742 5740 5738 5736 5733 5730 5728 5726 5724 5723 5721 5720 5718 5716 5715 5713 5713 5712 5712 5713 5715 5716 5718 5719 5719 5719 5719 5719 5718 5716 5715 5713 5711 5710
5772 5766 5762 5757 5754 5750 5745 5741 5737 5735 5734 5733 5732 5730 5727 5724 5723 5721 5719 5717 5716 5714 5712 5711 5708 5707 5707 5708 5705 5705 5709 5713 5714 5715 5716 5714 5715 5714 5713 5711 5710 5708 5707
5769 5764 5760 5756 5752 5748 5745 5741 5737 5734 5731 5730 5728 5726 5724 5722 5719 5718 5714 5712 5711 5709 5707 5706 5704 5701 5702 5703 5699 5695 5695 5699 5705 5710 5711 5710 5711 5710 5709 5708 5707 5705 5704
5768 5764 5760 5755 5751 5747 5744 5740 5735 5731 5728 5725 5723 5721 5720 5718 5716 5713 5710 5707 5706 5704 5702 5701 5699 5697 5695 5697 5697 5692 5687 5687 5692 5700 5704 5705 5706 5705 5705 5704 5703 5702 5701
5769 5765 5760 5754 5749 5745 5741 5736 5730 5726 5722 5721 5720 5718 5716 5714 5712 5709 5706 5703 5701 5699 5697 5696 5696 5695 5692 5690 5691 5692 5690 5688 5683 5685 5692 5698 5699 5699 5700 5700 5699 5698 5697
5768 5763 5758 5752 5746 5742 5738 5734 5729 5724 5721 5719 5716 5713 5711 5710 5708 5705 5703 5700 5697 5695 5694 5692 5692 5691 5689 5686 5685 5685 5684 5684 5683 5678 5678 5684 5688 5692 5694 5694 5692 5692 5692
5765 5760 5754 5747 5742 5739 5735 5731 5726 5721 5718 5714 5711 5708 5706 5705 5703 5701 5699 5696 5693 5691 5690 5689 5688 5686 5685 5683 5682 5681 5679 5677 5677 5675 5674 5676 5678 5683 5687 5689 5688 5688 5687